EW5655 Weather Reports


time (UTC)temp
C
wind
direction
speed
KPH
gust
KPH
rain 1hr
cm
rain 24hr
cm
rain mn
cm
humidity
%
barometer
mb
20260904164046 25 276 3.2 9.7 0.00 0.15 0.15 65 1020.1
20260904163544 24 286 3.2 8.0 0.00 0.15 0.15 66 1020.1
20260904163044 24 276 0.0 8.0 0.00 0.15 0.15 65 1020.1
20260904162544 25 276 3.2 8.0 0.00 0.15 0.15 65 1020.0
20260904162043 24 286 0.0 9.7 0.00 0.15 0.15 65 1020.1
20260904161548 24 211 0.0 9.7 0.00 0.15 0.15 68 1020.0
20260904161043 23 204 0.0 3.2 0.00 0.15 0.15 70 1020.0
20260904160542 23 203 0.0 8.0 0.00 0.15 0.15 70 1019.9
20260904160041 23 208 3.2 8.0 0.00 0.15 0.15 71 1020.0
20260904155541 23 211 3.2 9.7 0.00 0.15 0.15 72 1020.0
20260904155040 23 227 3.2 9.7 0.00 0.15 0.15 73 1020.0
20260904154539 22 168 3.2 9.7 0.00 0.15 0.15 75 1020.0
20260904154038 22 195 3.2 8.0 0.00 0.15 0.15 75 1020.0
20260904153536 22 165 1.6 8.0 0.00 0.15 0.15 76 1020.0
20260904153054 22 203 1.6 8.0 0.00 0.15 0.15 78 1020.0
20260904152533 22 215 1.6 4.8 0.00 0.15 0.15 78 1019.9
20260904152034 22 248 3.2 8.0 0.00 0.15 0.15 78 1019.8
20260904151533 22 260 3.2 9.7 0.00 0.15 0.15 79 1019.8
20260904151032 22 206 1.6 9.7 0.00 0.15 0.15 80 1019.8
20260904150532 22 217 3.2 9.7 0.00 0.15 0.15 79 1019.8
20260904150040 21 248 1.6 4.8 0.00 0.15 0.15 81 1019.8
20260904145532 21 163 0.0 4.8 0.00 0.15 0.15 81 1019.8
20260904145034 21 163 0.0 8.0 0.00 0.15 0.15 83 1019.7
20260904144530 21 163 1.6 8.0 0.00 0.15 0.15 82 1019.7
20260904144029 21 196 1.6 6.4 0.00 0.15 0.15 83 1019.7
20260904143528 21 196 1.6 4.8 0.00 0.15 0.15 83 1019.8
20260904143026 21 250 1.6 4.8 0.00 0.15 0.15 84 1019.8
20260904142528 21 250 1.6 8.0 0.00 0.15 0.15 83 1019.8
20260904142024 21 250 1.6 8.0 0.00 0.15 0.15 84 1019.7
20260904141523 21 224 3.2 6.4 0.00 0.15 0.15 84 1019.7
20260904141023 21 205 0.0 6.4 0.03 0.15 0.15 84 1019.7
20260904140521 21 205 1.6 6.4 0.03 0.15 0.15 83 1019.7
20260904140031 21 206 1.6 4.8 0.03 0.15 0.15 83 1019.5
20260904135519 21 205 1.6 4.8 0.03 0.15 0.15 83 1019.6
20260904135018 21 106 0.0 3.2 0.03 0.15 0.15 85 1019.4
20260904134516 21 106 0.0 3.2 0.03 0.15 0.15 86 1019.4
20260904134018 21 106 0.0 0.0 0.03 0.15 0.15 85 1019.4
20260904133513 21 106 0.0 0.0 0.03 0.15 0.15 85 1019.3
20260904133012 21 106 0.0 0.0 0.03 0.15 0.15 86 1019.3
20260904132511 20 106 0.0 0.0 0.05 0.15 0.15 86 1019.3
20260904132111 20 106 0.0 3.2 0.05 0.15 0.15 86 1019.2
20260904131533 20 106 0.0 3.2 0.05 0.15 0.15 86 1019.2
20260904131012 20 106 0.0 1.6 0.05 0.13 0.13 87 1019.2
20260904130512 20 106 0.0 1.6 0.05 0.13 0.13 87 1019.0
20260904130009 20 106 0.0 3.2 0.08 0.13 0.13 87 1019.0
20260904125510 20 106 0.0 3.2 0.08 0.13 0.13 86 1019.0
20260904125008 20 106 0.0 3.2 0.08 0.13 0.13 87 1018.9
20260904124507 20 106 0.0 3.2 0.08 0.13 0.13 87 1018.9
20260904124006 20 106 0.0 6.4 0.10 0.13 0.13 86 1018.8
20260904123509 20 214 1.6 6.4 0.10 0.13 0.13 87 1018.9
20260904123005 20 214 0.0 6.4 0.10 0.13 0.13 87 1018.9
20260904122505 20 90 0.0 8.0 0.08 0.10 0.10 88 1019.0
20260904122003 20 92 1.6 8.0 0.08 0.10 0.10 87 1018.9
20260904121504 20 115 4.8 8.0 0.08 0.10 0.10 85 1019.0
20260904121001 20 170 0.0 6.4 0.05 0.08 0.08 86 1019.1
20260904120603 20 170 1.6 6.4 0.05 0.08 0.08 84 1019.0
20260904115559 20 170 1.6 6.4 0.03 0.05 0.05 83 1019.0
20260904115058 20 170 0.0 3.2 0.03 0.05 0.05 83 1019.0
20260904114605 20 170 0.0 3.2 0.03 0.05 0.05 84 1018.8
20260904114057 20 170 0.0 8.0 0.00 0.03 0.03 84 1018.9
20260904113556 20 170 1.6 8.0 0.00 0.03 0.03 84 1019.0
20260904113056 21 157 1.6 3.2 0.00 0.03 0.03 83 1019.0
20260904112557 21 157 0.0 6.4 0.00 0.03 0.03 82 1018.9
20260904112052 21 157 1.6 4.8 0.00 0.03 0.03 82 1018.9
20260904111552 21 157 1.6 6.4 0.03 0.03 0.03 80 1018.9
20260904111051 21 157 0.0 6.4 0.03 0.03 0.03 81 1018.9
20260904110550 21 157 1.6 6.4 0.03 0.03 0.03 79 1019.0
20260904110050 21 157 0.0 6.4 0.03 0.03 0.03 78 1019.0
20260904105550 21 157 1.6 6.4 0.03 0.03 0.03 78 1019.1
20260904105051 21 157 1.6 4.8 0.03 0.03 0.03 77 1019.1
20260904104552 21 103 0.0 3.2 0.03 0.03 0.03 78 1018.9
20260904104047 21 103 0.0 6.4 0.03 0.03 0.03 77 1018.9
20260904103547 21 103 0.0 8.0 0.03 0.03 0.03 77 1018.8
20260904103055 21 103 0.0 9.7 0.03 0.03 0.03 76 1018.8
20260904102548 21 103 4.8 9.7 0.03 0.03 0.03 78 1018.7
20260904102047 21 92 3.2 8.0 0.03 0.03 0.03 78 1018.7
20260904101551 21 239 1.6 4.8 0.00 0.00 0.00 79 1018.6
20260904101046 21 239 0.0 1.6 0.00 0.00 0.00 77 1018.7
20260904100545 22 239 0.0 3.2 0.00 0.00 0.00 73 1018.7
20260904100049 22 239 0.0 3.2 0.00 0.00 0.00 71 1018.7
20260904095543 22 239 0.0 6.4 0.00 0.00 0.00 72 1018.7
20260904095046 22 239 0.0 6.4 0.00 0.00 0.00 69 1018.7
20260904094558 22 265 0.0 12.9 0.00 0.00 0.00 67 1018.6
20260904094040 22 263 4.8 14.5 0.00 0.00 0.00 64 1018.7
20260904093539 22 222 4.8 14.5 0.00 0.00 0.00 63 1018.8
20260904093038 22 210 8.0 16.1 0.00 0.00 0.00 63 1018.7
20260904092536 23 195 9.7 16.1 0.00 0.00 0.00 62 1018.7
20260904092036 23 237 6.4 12.9 0.00 0.00 0.00 62 1018.6
20260904091536 23 215 6.4 11.3 0.00 0.00 0.00 62 1018.5
20260904091036 23 230 6.4 9.7 0.00 0.00 0.00 62 1018.5
20260904090534 23 194 3.2 11.3 0.00 0.00 0.00 62 1018.6
20260904090035 23 209 3.2 11.3 0.00 0.00 0.00 61 1018.8
20260904085534 23 186 3.2 8.0 0.00 0.00 0.00 61 1018.8
20260904085034 23 163 3.2 12.9 0.00 0.00 0.00 61 1018.8
20260904084533 23 193 3.2 12.9 0.00 0.00 0.00 61 1018.9
20260904084034 23 167 4.8 14.5 0.00 0.00 0.00 61 1019.0
20260904083532 23 164 6.4 14.5 0.00 0.00 0.00 60 1018.9
20260904083039 23 223 8.0 14.5 0.00 0.00 0.00 60 1018.8
20260904082532 23 179 6.4 16.1 0.00 0.00 0.00 59 1018.8
20260904082031 23 186 8.0 19.3 0.00 0.00 0.00 58 1018.8
20260904081529 23 196 11.3 20.9 0.00 0.00 0.00 57 1018.8
20260904081030 24 153 12.9 19.3 0.00 0.00 0.00 56 1018.9
20260904080531 24 196 9.7 20.9 0.00 0.00 0.00 55 1018.9
20260904080026 24 175 12.9 20.9 0.00 0.00 0.00 54 1018.9
20260904075525 24 157 11.3 17.7 0.00 0.00 0.00 54 1018.9
20260904075024 24 173 4.8 16.1 0.00 0.00 0.00 54 1018.9
20260904074522 25 186 9.7 16.1 0.00 0.00 0.00 54 1018.8
20260904074021 25 154 4.8 19.3 0.00 0.00 0.00 55 1018.7
20260904073521 25 225 9.7 19.3 0.00 0.00 0.00 55 1018.8
20260904073024 25 165 9.7 19.3 0.00 0.00 0.00 55 1018.7
20260904072520 25 223 8.0 19.3 0.00 0.00 0.00 56 1018.7
20260904072019 25 195 11.3 19.3 0.00 0.00 0.00 56 1018.5
20260904071516 25 203 6.4 20.9 0.00 0.00 0.00 55 1018.4
20260904071015 25 214 11.3 20.9 0.00 0.00 0.00 54 1018.3
20260904070517 26 209 6.4 25.7 0.00 0.00 0.00 54 1018.3
20260904070014 26 216 14.5 25.7 0.00 0.00 0.00 51 1018.2
20260904065512 26 215 8.0 14.5 0.00 0.00 0.00 46 1018.1
20260904065011 26 157 3.2 9.7 0.00 0.00 0.00 46 1017.9
20260904064514 26 167 4.8 17.7 0.00 0.00 0.00 46 1017.6
20260904064016 26 256 6.4 17.7 0.00 0.00 0.00 46 1017.5
20260904063508 26 222 3.2 14.5 0.00 0.00 0.00 45 1017.5
20260904063008 26 205 4.8 17.7 0.00 0.00 0.00 45 1017.5
20260904062507 27 265 8.0 17.7 0.00 0.00 0.00 44 1017.5
20260904062006 27 233 8.0 16.1 0.00 0.00 0.00 43 1017.5
20260904061505 26 221 4.8 9.7 0.00 0.00 0.00 43 1017.3
20260904061006 26 207 3.2 8.0 0.00 0.00 0.00 43 1017.2
20260904060503 26 247 3.2 8.0 0.00 0.00 0.00 42 1017.1
20260904060009 27 232 3.2 14.5 0.00 0.00 0.00 41 1017.2
20260904055503 26 218 4.8 14.5 0.00 0.00 0.00 41 1017.1
20260904055001 26 248 4.8 9.7 0.00 0.00 0.00 43 1017.1
20260904054634 26 43 0.0 3.2 0.00 0.00 0.00 41 1017.0
20260904054101 26 43 0.0 1.6 0.00 0.00 0.00 40 1016.9
20260904053600 26 43 0.0 1.6 0.00 0.00 0.00 40 1016.8
20260904053100 26 43 0.0 1.6 0.00 0.00 0.00 40 1016.8
20260904052600 26 43 0.0 6.4 0.00 0.00 0.00 39 1016.8
20260904052101 27 43 1.6 6.4 0.00 0.00 0.00 39 1016.9
20260904051601 27 43 0.0 3.2 0.00 0.00 0.00 39 1016.9
20260904051101 27 43 0.0 6.4 0.00 0.00 0.00 39 1016.9
20260904050559 27 42 1.6 6.4 0.00 0.00 0.00 39 1016.9
20260904050100 27 16 0.0 3.2 0.00 0.00 0.00 40 1016.9
20260904045600 27 16 0.0 3.2 0.00 0.00 0.00 41 1016.9
20260904045100 27 16 0.0 1.6 0.00 0.00 0.00 41 1017.0
20260904044559 27 16 0.0 1.6 0.00 0.00 0.00 40 1016.9
20260904044059 27 16 0.0 0.0 0.00 0.00 0.00 40 1016.9
20260904043559 27 16 0.0 1.6 0.00 0.00 0.00 39 1016.9
20260904043104 27 16 0.0 1.6 0.00 0.00 0.00 39 1016.9
20260904042558 27 16 0.0 0.0 0.00 0.00 0.00 40 1016.9
20260904042100 27 16 0.0 1.6 0.00 0.00 0.00 39 1016.9
20260904041605 27 16 0.0 1.6 0.00 0.00 0.00 39 1017.0
20260904041059 27 16 0.0 1.6 0.00 0.00 0.00 39 1016.9
20260904040558 27 16 0.0 1.6 0.00 0.00 0.00 40 1016.9
20260904040058 27 16 0.0 0.0 0.00 0.00 0.00 39 1016.8
20260904035559 28 16 0.0 0.0 0.00 0.00 0.00 39 1016.8
20260904035057 28 16 0.0 1.6 0.00 0.00 0.00 38 1016.8
20260904034557 28 16 0.0 3.2 0.00 0.00 0.00 38 1016.7
20260904034101 28 16 0.0 3.2 0.00 0.00 0.00 37 1016.7
20260904033559 28 16 0.0 1.6 0.00 0.00 0.00 37 1016.6
20260904033055 29 16 0.0 1.6 0.00 0.00 0.00 36 1016.6
20260904032557 29 16 0.0 3.2 0.00 0.00 0.00 35 1016.6
20260904032057 29 16 0.0 3.2 0.00 0.00 0.00 35 1016.5
20260904031558 29 16 0.0 4.8 0.00 0.00 0.00 36 1016.5
20260904031053 29 360 3.2 6.4 0.00 0.00 0.00 36 1016.5
20260904030553 29 357 1.6 4.8 0.00 0.00 0.00 36 1016.4
20260904030053 29 319 1.6 6.4 0.00 0.00 0.00 36 1016.3
20260904025553 30 308 0.0 4.8 0.00 0.00 0.00 35 1016.1
20260904025053 30 308 0.0 6.4 0.00 0.00 0.00 35 1016.1
20260904024557 30 276 1.6 6.4 0.00 0.00 0.00 35 1016.0
20260904024055 30 290 1.6 8.0 0.00 0.00 0.00 34 1016.0
20260904023552 30 305 3.2 9.7 0.00 0.00 0.00 34 1015.8
20260904023054 30 263 3.2 11.3 0.00 0.00 0.00 34 1015.8
20260904022551 30 254 4.8 11.3 0.00 0.00 0.00 33 1015.8
20260904022052 30 266 4.8 11.3 0.00 0.00 0.00 33 1015.7
20260904021552 30 276 4.8 11.3 0.00 0.00 0.00 33 1015.7
20260904021051 31 244 6.4 14.5 0.00 0.00 0.00 32 1015.6
20260904020551 31 252 6.4 14.5 0.00 0.00 0.00 32 1015.5
20260904020054 31 276 4.8 12.9 0.00 0.00 0.00 32 1015.5
20260904015552 31 244 6.4 12.9 0.00 0.00 0.00 31 1015.4
20260904015051 31 268 4.8 11.3 0.00 0.00 0.00 31 1015.3
20260904014615 31 290 4.8 11.3 0.00 0.00 0.00 31 1015.4
20260904014049 31 311 3.2 12.9 0.00 0.00 0.00 31 1015.3
20260904013550 31 250 8.0 16.1 0.00 0.00 0.00 31 1015.3
20260904013107 31 266 9.7 16.1 0.00 0.00 0.00 31 1015.4
20260904012550 31 234 6.4 9.7 0.00 0.00 0.00 31 1015.3
20260904012051 31 261 6.4 14.5 0.00 0.00 0.00 31 1015.3
20260904011549 32 286 8.0 14.5 0.00 0.00 0.00 30 1015.3
20260904011049 32 233 6.4 16.1 0.00 0.00 0.00 30 1015.3
20260904010549 32 242 8.0 14.5 0.00 0.00 0.00 30 1015.3
20260904010057 32 248 6.4 12.9 0.00 0.00 0.00 29 1015.2
20260904005549 32 258 6.4 14.5 0.00 0.00 0.00 30 1015.2
20260904005049 32 240 6.4 14.5 0.00 0.00 0.00 29 1015.2
20260904004548 32 263 6.4 11.3 0.00 0.00 0.00 29 1015.1
20260904004049 32 221 4.8 12.9 0.00 0.00 0.00 28 1015.1
20260904003548 32 227 6.4 12.9 0.00 0.00 0.00 28 1015.2
20260904003052 33 257 8.0 11.3 0.00 0.00 0.00 28 1015.2
20260904002548 33 257 3.2 16.1 0.00 0.00 0.00 27 1015.2
20260904002049 33 257 6.4 16.1 0.00 0.00 0.00 28 1015.2
20260904001548 33 222 9.7 17.7 0.00 0.00 0.00 27 1015.2
20260904001048 33 238 8.0 17.7 0.00 0.00 0.00 27 1015.1
20260904000548 33 223 8.0 14.5 0.00 0.00 0.00 27 1015.1
20260904000050 33 266 4.8 16.1 0.00 0.00 0.00 27 1015.0
20260903235548 33 238 8.0 16.1 0.00 0.00 0.00 28 1015.1
20260903235047 33 205 9.7 16.1 0.00 0.00 0.00 27 1015.0
20260903234548 34 223 9.7 14.5 0.00 0.00 0.00 27 1015.0
20260903234046 34 246 6.4 11.3 0.00 0.00 0.00 28 1015.0
20260903233547 33 222 4.8 11.3 0.00 0.00 0.00 27 1015.0
20260903233048 33 225 4.8 16.1 0.00 0.00 0.00 28 1015.1
20260903232545 33 252 1.6 16.1 0.00 0.00 0.00 28 1015.1
20260903232045 33 286 6.4 12.9 0.00 0.00 0.00 29 1015.1
20260903231546 33 240 1.6 12.9 0.00 0.00 0.00 30 1015.2
20260903231043 33 238 6.4 12.9 0.00 0.00 0.00 29 1015.2
20260903230543 33 292 6.4 16.1 0.00 0.00 0.00 30 1015.2
20260903230044 32 339 9.7 16.1 0.00 0.00 0.00 31 1015.2
20260903225546 32 244 9.7 17.7 0.00 0.00 0.00 31 1015.3
20260903225043 32 264 8.0 17.7 0.00 0.00 0.00 31 1015.3
20260903224542 32 256 8.0 17.7 0.00 0.00 0.00 31 1015.3
20260903224042 32 244 8.0 22.5 0.00 0.00 0.00 31 1015.4
20260903223542 32 248 14.5 22.5 0.00 0.00 0.00 30 1015.4
20260903223048 33 216 12.9 17.7 0.00 0.00 0.00 30 1015.4
20260903222544 33 271 6.4 17.7 0.00 0.00 0.00 29 1015.3
20260903222041 33 272 9.7 20.9 0.00 0.00 0.00 28 1015.4
20260903221542 34 281 9.7 20.9 0.00 0.00 0.00 28 1015.4
20260903221042 35 242 8.0 16.1 0.00 0.00 0.00 26 1015.4
20260903220540 35 247 8.0 17.7 0.00 0.00 0.00 26 1015.5
20260903220040 35 309 9.7 17.7 0.00 0.00 0.00 26 1015.5
20260903215545 35 340 4.8 11.3 0.00 0.00 0.00 26 1015.5
20260903215039 35 255 3.2 11.3 0.00 0.00 0.00 27 1015.5
20260903214542 35 115 3.2 11.3 0.00 0.00 0.00 27 1015.6
20260903214038 34 266 3.2 17.7 0.00 0.00 0.00 28 1015.6
20260903213538 34 303 8.0 17.7 0.00 0.00 0.00 28 1015.7
20260903213043 35 265 9.7 17.7 0.00 0.00 0.00 27 1015.7
20260903212536 35 223 3.2 16.1 0.00 0.00 0.00 27 1015.9
20260903212036 35 229 11.3 17.7 0.00 0.00 0.00 28 1016.0
20260903211546 35 309 6.4 19.3 0.00 0.00 0.00 27 1015.9
20260903211036 35 315 11.3 19.3 0.00 0.00 0.00 27 1015.9
20260903210535 35 257 6.4 16.1 0.00 0.00 0.00 28 1016.1
20260903210034 35 232 8.0 16.1 0.00 0.00 0.00 28 1016.2
20260903205537 35 267 9.7 20.9 0.00 0.00 0.00 27 1016.3
20260903205031 35 331 8.0 20.9 0.00 0.00 0.00 27 1016.4
20260903204530 35 310 8.0 14.5 0.00 0.00 0.00 26 1016.4
20260903204034 34 232 6.4 14.5 0.00 0.00 0.00 28 1016.5
20260903203528 35 281 8.0 14.5 0.00 0.00 0.00 27 1016.5
20260903203032 35 178 8.0 14.5 0.00 0.00 0.00 27 1016.6
20260903202528 33 303 4.8 14.5 0.00 0.00 0.00 28 1016.6
20260903202028 33 248 9.7 14.5 0.00 0.00 0.00 29 1016.8
20260903201528 33 203 0.0 14.5 0.00 0.00 0.00 27 1016.8
20260903201028 33 350 6.4 14.5 0.00 0.00 0.00 28 1016.8
20260903200526 33 254 9.7 14.5 0.00 0.00 0.00 28 1016.9
20260903200026 34 267 4.8 14.5 0.00 0.00 0.00 28 1017.0
20260903195524 33 72 1.6 14.5 0.00 0.00 0.00 28 1017.0
20260903195028 34 199 3.2 11.3 0.00 0.00 0.00 26 1017.1
20260903194523 35 48 0.0 8.0 0.00 0.00 0.00 28 1017.2
20260903194021 33 286 1.6 8.0 0.00 0.00 0.00 27 1017.3
20260903193521 33 250 1.6 11.3 0.00 0.00 0.00 26 1017.4
20260903193020 32 227 6.4 11.3 0.00 0.00 0.00 29 1017.5
20260903192520 32 281 3.2 12.9 0.00 0.00 0.00 31 1017.5
20260903192020 32 194 6.4 12.9 0.00 0.00 0.00 31 1017.6
20260903191526 32 157 6.4 12.9 0.00 0.00 0.00 31 1017.6
20260903191019 32 209 4.8 12.9 0.00 0.00 0.00 33 1017.6
20260903190519 32 339 3.2 12.9 0.00 0.00 0.00 31 1017.7
20260903190020 32 214 6.4 16.1 0.00 0.00 0.00 31 1017.8
20260903185519 33 276 8.0 16.1 0.00 0.00 0.00 30 1017.9
20260903185018 33 140 3.2 11.3 0.00 0.00 0.00 31 1018.0
20260903184516 32 252 4.8 12.9 0.00 0.00 0.00 30 1018.1
20260903184015 32 204 6.4 12.9 0.00 0.00 0.00 31 1018.2
20260903183515 32 145 1.6 11.3 0.00 0.00 0.00 30 1018.2
20260903183014 32 202 3.2 11.3 0.00 0.00 0.00 32 1018.4
20260903182512 31 244 6.4 11.3 0.00 0.00 0.00 34 1018.5
20260903182012 31 228 1.6 12.9 0.00 0.00 0.00 35 1018.5
20260903181512 31 207 6.4 12.9 0.00 0.00 0.00 35 1018.6
20260903181015 31 169 0.0 8.0 0.00 0.00 0.00 35 1018.7
20260903180512 31 169 1.6 8.0 0.00 0.00 0.00 34 1018.7
20260903180016 31 132 1.6 8.0 0.00 0.00 0.00 33 1018.8
20260903175511 31 165 3.2 12.9 0.00 0.00 0.00 34 1018.8
20260903175011 31 220 4.8 12.9 0.00 0.00 0.00 35 1018.9
20260903174511 31 118 3.2 11.3 0.00 0.00 0.00 34 1019.0
20260903174009 31 153 3.2 9.7 0.00 0.00 0.00 35 1019.0
20260903173513 30 146 0.0 8.0 0.00 0.00 0.00 35 1019.0
20260903173009 31 187 3.2 8.0 0.00 0.00 0.00 35 1019.0
20260903172509 30 303 0.0 3.2 0.00 0.00 0.00 36 1019.0
20260903172007 30 83 0.0 3.2 0.00 0.00 0.00 38 1019.1
20260903171506 30 5 0.0 9.7 0.00 0.00 0.00 38 1019.1
20260903171004 30 296 6.4 9.7 0.00 0.00 0.00 38 1019.1
20260903170503 30 281 0.0 8.0 0.00 0.00 0.00 39 1019.1
20260903170003 29 348 3.2 8.0 0.00 0.00 0.00 39 1019.1
20260903165501 29 234 0.0 8.0 0.00 0.00 0.00 41 1019.1
20260903165001 29 234 4.8 9.7 0.00 0.00 0.00 43 1019.1
20260903164608 28 184 1.6 9.7 0.00 0.00 0.00 44 1019.2